DOSAAF 85 (RS-44)

Last updated on Sat May 09 2020 05:14:38 GMT+0000 (Coordinated Universal Time)

1 44909U 19096E 20129.87611287 .00000010 00000-0 00000+0 0 9995 2 44909 82.5232 21.6122 0216961 319.3954 39.1137 12.79706889 17125
UTC large
Height (km)
Speed (km/s)
/
Latitude / Longitude
Inclination (degrees)
Orbital Period (minutes)
Azimuth
Elevation
Range (km)
Doppler Factor

Next 0 passes for location: London (51.5072 / 0.1276)

Sorry there are no passes over London.
DOSAAF 85 (RS-44)